www.pogodaiklimat.ru

Погода и климат >> Архив погоды >> Антарктида >> Дюмон-д`Юрвиль


ПОГОДА на Дюмон-д`Юрвиле

  • Прогноз погоды на Дюмон-д`Юрвиле
  • Монитор погоды на Дюмон-д`Юрвиле

АРХИВ ПОГОДЫ на Дюмон-д`Юрвиле

Время (UTC), дата Ветер
(напр.,м/с)
 
Видим.   Явления Облачность Т
(С)
Тd
(С)
f
(%)
Тe
(С)
Тes
(С)
Комфортность P
(гПа)
Po
(гПа)
Тmin
(С)
Tmax
(С)
R
(мм)
R24
(мм)
S
(см)
12 14.04 Ю 4 н/о н/о -14.4 -22.8 49 -22 -22 993.6 988.0 -14.4 -9.8
15 14.04 Ю 4 н/о н/о -14.2 -24.6 41 -21 -21 996.5 990.9
18 14.04 ЮВ 4 н/о н/о -14.3 -27.8 31 -21 -21 999.7 994.1
21 14.04 ЮВ 3 50 км 1/0
[]
-15.3 -27.7 34 -21 -21 1001.9 996.2
00 15.04 Ю 4 30 км 9/0
[Ac As Cs]
-14.6 -26.7 35 -22 -22 1003.1 997.4 -16.1 -13.5
03 15.04 В 3 25 км 10/0
[As trans]
-12.6 -21.1 49 -19 -19 1002.8 997.2
06 15.04 В 10-15
{17}
н/о н/о -10.9 -23.7 34 -21 -21 1001.4 995.8
09 15.04 В 9-16
{19}
20 км 10/0
[As trans]
-10.0 -24.3 30 -20 -20 1001.0 995.4
12 15.04 В 11-18
{19}
н/о н/о -9.8 -22.1 36 -21 -21 1002.0 996.4 -14.8 -9.5
15 15.04 В 9-16
{19}
н/о н/о -9.6 -21.0 39 -19 -19 1001.0 995.4
18 15.04 В 9-15
{19}
н/о н/о -9.6 -20.1 42 -19 -19 1001.2 995.6
21 15.04 В 12-19
{23}
15 км 10/10 1000 м
[]
-8.6 -21.3 35 -19 -19 1000.9 995.4
00 16.04 В 12-20
{23}
25 км 10/10 1300 м
[Sc]
-9.2 -20.1 41 -20 -20 999.4 993.9 -10.1 -8.2
03 16.04 В 16-26
{29}
4000 м сильная метель 10/10 1000 м
[Sc]
-9.8 -16.5 58 -23 -23 996.2 990.7
06 16.04 В 20-30
{31}
<100 м снег {метель} ?/? -10.1 -11.9 87 -24 -24 993.9 988.4
09 16.04 В 19-30
{32}
100 м снег ?/? -10.9 -12.8 86 -25 -25 996.0 990.4
12 16.04 В 15-24
{32}
н/о н/о -11.4 -13.4 85 -24 -24 998.8 993.2 -11.9 -8.5
15 16.04 ЮВ 17-26
{27}
н/о н/о -11.6 -13.6 85 -25 -25 998.7 993.1
18 16.04 В 15-23
{28}
н/о н/о -11.6 -13.6 85 -25 -25 999.4 993.8
21 16.04 В 19-28
{29}
н/о н/о -10.8 -12.7 86 -25 -25 997.9 992.3
00 17.04 В 19-29
{31}
400 м снег ?/? -9.6 -11.4 87 -23 -23 994.5 989.0 -12.1 -9.1
03 17.04 В 22-34
{34}
н/о {снег} н/о -8.6 -10.2 88 -23 -23 992.1 986.6
06 17.04 В 21-29
{34}
<100 м сильн. снег ?/? -9.3 -10.9 88 -23 -23 990.2 984.7
09 17.04 ЮВ 23-33
{37}
100 м сильн. снег ?/? -9.7 -11.5 87 -24 -24 987.7 982.2
12 17.04 ЮВ 21-33
{38}
н/о н/о -9.4 -11.0 88 -23 -23 986.7 981.2 -10.3 -7.5
15 17.04 В 19-28
{31}
н/о н/о -9.4 -11.0 88 -23 -23 986.4 980.9
18 17.04 ЮВ 16-26
{32}
н/о н/о -10.3 -12.2 86 -23 -23 986.7 981.2
21 17.04 В 16-25
{27}
4000 м 9/9 1000 м
[]
-10.3 -12.0 87 -23 -23 988.1 982.6
00 18.04 ЮВ 12-21
{27}
4000 м позёмок 8/8 1500 м
[Sc Ac und]
-11.3 -13.3 85 -23 -23 991.2 985.7 -11.5 -9.0
03 18.04 В 11-17
{24}
30 км {метель} 3/0
[Ac trans Ci fib]
-10.2 -12.2 85 -21 -21 994.0 988.5
06 18.04 ЮВ 9-16
{24}
25 км {метель} 4/0
[Ci]
-10.3 -15.6 65 -20 -20 996.1 990.6
09 18.04 В 9-14
{17}
20 км 3/0
[Ci fib]
-10.8 -17.7 57 -21 -21 997.8 992.2
12 18.04 В 9
{20}
н/о н/о -10.3 -17.8 54 -21 -21 998.3 992.7 -11.3 -9.2
15 18.04 В 12-22
{26}
н/о н/о -9.7 -14.7 67 -21 -21 993.9 988.4
18 18.04 ЮВ 19-29
{29}
н/о н/о -10.1 -11.9 87 -24 -24 990.4 984.9
21 18.04 ЮВ 15-25
{31}
200 м ?/? -10.1 -12.0 86 -23 -23 990.7 985.2

 

Местоположение метеостанции Дюмон-д`Юрвиль (Антарктида): широта -66.66 долгота 140.01 высота над уровнем моря 43 м.

В архиве по умолчанию представлена погода на Дюмон-д`Юрвиле за последнюю неделю. Архивные данные за месяц целиком и за предыдущие месяцы, начиная с января 2011 года, Вы можете получить, выбрав интересующий диапазон дат из раскрывающегося списка и нажав кнопку "Ввод!".


*Определитесь, кто Вы:
робот инопланетянин человек

Внимание! Время в таблицах - всемирное. Для получения местного времени необходимо прибавить поправку, которая равна 0 ч.

Смотрите также архив погоды в соседних городах и на ближайших метеорологических станциях:

Погода на D-47 (Антарктида) (98 км)
Погода в Sitry Point (Антарктида) (651 км)
Погода на Mid Point (Антарктида) (691 км)
Погода на Ленинградской (Антарктида) (860 км)
Погода на Dome C II (Антарктида) (1110 км)
Погода на Острове Маккуори (Тасмания, Австралия) (1688 км)

Пояснения к столбцам:

Ветер - указаны скорость ветра в м/с - средняя за 10 мин, порывы в срок и между сроками (в фигурных скобках) и направление, откуда дует ветер: С - северный, СВ - северо-восточный, В - восточный, ЮВ - юго-восточный, Ю - южный, ЮЗ - юго-западный, З - западный, СЗ - северо-западный.
Видимость - горизонтальная дальность видимости в метрах или километрах. При видимости от 1 до 10 км при отсутствии осадков обычно наблюдается дымка, при ухудшении видимости до 1 км и менее - туман. В сухую погоду видимость может ухудшаться дымом, пылью или мглою.
Явления - указаны атмосферные явления, наблюдавшиеся в срок или в последний час перед сроком; фигурными скобками обозначены явления, наблюдавшиеся между сроками (за 1-3 часа до срока); квадратными скобками обозначены град или гололедные отложения с указанием их диаметра в мм.
Облачность - указаны через наклонную черту общая и нижняя облачность в баллах и высота нижней границы облаков в метрах; квадратными скобками обозначены формы облаков: Ci - перистые, Cs - перисто-слоистые, Cc - перисто-кучевые, Ac - высококучевые, As - высокослоистые, Sc - слоисто-кучевые, Ns - слоисто-дождевые, Cu - кучевые, Cb - кучево-дождевые. Подробнее классификацию облаков см. в Атласе облаков (PDF).
T - Температура воздуха - температура, измеренная на высоте 2 м над землей.
Td - Температура точки росы - температура, при понижении до которой содержащийся в воздухе водяной пар достигнет насыщения.
f - Относительная влажность воздуха - влажноcть воздуха, измеренная на высоте 2 м над землей.
Te - Эффективная температура - температура, которую ощущает одетый по сезону человек в тени. Характеристика душности погоды. При расчете учитывается влияние влажности воздуха и скорости ветра на теплоощущения человека.
Tes - Эффективная температура на солнце - температура, которую ощущает человек, с поправкой на солнечный нагрев. Характеристика знойности погоды. Зависит от высоты солнца над горизонтом, облачности и скорости ветра. Ночью, в пасмурную погоду, а также при ветре 12 м/с и более поправка равна нулю.
P - Атмосферное давление - приведенное к уровню моря атмосферное давление.
Po - Атмосферное давление - измеренное на уровне метеостанции атмосферное давление.
Tmin - Минимальная температура - минимум температуры воздуха на высоте 2 м над землей.
Tmax - Максимальная температура - максимум температуры воздуха на высоте 2 м над землей.
R - Количество осадков - Количество выпавших осадков за период времени, мм. При наведении курсора мыши на число - период времени, за который выпало указанное количество осадков.
R24 - Количество осадков - Количество выпавших осадков за 24 часа, мм.
S - Снежный покров - Высота снежного покрова, см. При наведении курсора мыши на число - состояние снежного покрова и степень покрытия местности в баллах.